星链-5967 (STARLINK-5967 )

导读

STARLINK-5967是美国SpaceX公司星链星座的卫星,于2023年4月27日发射,属于星链低轨互联网卫星。星链计划旨在构建全球低轨卫星互联网星座,提供高速宽带服务,该卫星采用平板设计,搭载霍尔推进器,具备自主避撞能力,服役后将助力全球覆盖,为各地用户提供互联网接入服务。

Basic Information
目录编号:
56330
目录名称:
STARLINK-5967
国际标识:
2023-058P
轨道中心:
EARTH
卫星名称:
星链-5967
卫星全名:
星链-5967 (STARLINK-5967 )
卫星状态:
已陨落 最后检测时间 2025-04-30
发射日期:
2023-04-27 UTC
国别 :
美国 (US)
星等 :
--
Orbit Information
数据来源 国际轨道数据
星历时间: 2025-04-30T09:38:52+0800
轨道信息已过期410天
半长轴: 6552.955km
偏心率: 0.0013381
轨道倾角: 97.629°
近地点辐角 213.430°
升交点赤经 130.692°
平近点角 146.615°
近地点: 166.051km
远地点: 183.589km
周期: 87.986分钟
每日圈数: 16.366168
Detailed Information
固有亮度:
5
最大亮度:
2.5
卫星平台:
Starlink v1.5
覆盖范围:
全球
运营商:
太空探索技术公司
运营商所在国:
美国
制造商(研发单位):
太空探索技术公司
制造商所在国:
美国
使用方式:
暂无
Satellite Introduction
星链(Starlink)计划是由太空探索技术公司(SpaceX)提出的一个巨型低轨卫星互联网星座项目,计划在2019年至2024年间在太空搭建由约1.2万颗卫星组成的“星链”网络,其中1584颗将部署在地球上空550千米处的近地轨道,并从2020年开始工作。该卫星仍在工作。